W6DSP Weather Reports


Display with metric or nautical units.
time (UTC)temp
F
wind
direction
speed
MPH
gust
MPH
rain 1hr
in
rain 24hr
in
rain mn
in
humidity
%
barometer
mb
20260902110011 71 183 0.0 0.0 0.00 0.00 0.00 93 1015.9
20260902104735 71 183 0.0 0.0 0.00 0.00 0.00 93 1015.7
20260902103512 71 183 0.0 0.0 0.00 0.00 0.00 93 1015.6
20260902102317 71 183 0.0 0.0 0.00 0.00 0.00 93 1015.6
20260902101142 71 183 0.0 0.0 0.00 0.00 0.00 93 1015.4
20260902095956 72 183 0.0 0.0 0.00 0.00 0.00 93 1015.3
20260902085859 72 183 0.0 0.0 0.00 0.00 0.00 93 1015.2
20260902082220 73 183 0.0 0.0 0.00 0.00 0.00 93 1015.2
20260902080958 73 183 0.0 0.0 0.00 0.00 0.00 93 1015.2
20260902075812 73 183 0.0 0.0 0.00 0.00 0.00 93 1015.2
20260902063423 75 183 0.0 0.0 0.00 0.00 0.00 93 1015.1
20260902062245 75 183 0.0 0.0 0.00 0.00 0.00 93 1015.2
20260902055753 75 183 0.0 0.0 0.00 0.00 0.00 93 1015.3
20260902053418 75 210 0.0 0.0 0.00 0.00 0.00 93 1015.3
20260902052236 76 210 0.0 0.0 0.00 0.00 0.00 92 1015.3
20260902045831 76 210 0.0 0.0 0.00 0.00 0.00 92 1015.2
20260902042137 77 213 0.0 0.0 0.00 0.00 0.00 92 1015.2
20260902041003 77 210 0.0 0.0 0.00 0.00 0.00 92 1015.3
20260902035745 77 169 0.0 1.0 0.00 0.00 0.00 92 1015.2
20260902033330 77 315 0.0 0.0 0.00 0.00 0.00 92 1015.2
20260902032130 78 315 0.0 0.0 0.00 0.00 0.00 92 1015.2
20260902024436 78 315 0.0 0.0 0.00 0.00 0.00 92 1015.2
20260902022030 78 315 0.0 0.0 0.00 0.00 0.00 92 1015.1
20260902020853 79 315 0.0 0.0 0.00 0.00 0.00 92 1015.1
20260902005710 79 315 0.0 0.0 0.00 0.00 0.00 91 1014.8
20260902003240 80 315 0.0 0.0 0.00 0.00 0.00 91 1014.8
20260902002004 81 315 0.0 0.0 0.00 0.00 0.00 90 1014.7
20260901224403 86 311 0.0 0.0 0.00 0.00 0.00 86 1014.8
20260901223154 87 311 0.0 0.0 0.00 0.00 0.00 84 1014.6
20260901220846 89 309 0.0 2.0 0.00 0.00 0.00 80 1014.7
20260901215704 90 311 0.0 3.0 0.00 0.00 0.00 75 1014.7
20260901214427 90 300 0.0 1.0 0.00 0.00 0.00 76 1014.7
20260901212045 91 339 0.0 3.0 0.00 0.00 0.00 74 1014.7
20260901204452 89 329 0.0 3.0 0.00 0.00 0.00 73 1014.9
20260901202104 89 51 0.0 3.0 0.00 0.00 0.00 78 1014.9
20260901193141 88 351 0.0 2.0 0.00 0.00 0.00 75 1015.1
20260901190737 88 183 0.0 9.0 0.00 0.00 0.00 72 1015.2
20260901185507 89 89 0.0 9.0 0.00 0.00 0.00 71 1015.3
20260901184235 88 229 1.0 7.0 0.00 0.00 0.00 73 1015.4
20260901181748 90 49 1.0 8.0 0.00 0.01 0.00 71 1015.3
20260901173011 87 209 1.0 9.0 0.00 0.01 0.00 74 1015.5
20260901171827 87 138 1.0 9.0 0.00 0.01 0.00 74 1015.7
20260901164332 87 108 1.0 11.0 0.00 0.01 0.00 72 1015.6
20260901161938 87 239 1.0 11.0 0.00 0.01 0.00 75 1015.8
20260901160744 86 84 1.0 11.0 0.00 0.01 0.00 77 1015.7
20260901154252 82 130 0.0 3.0 0.00 0.01 0.00 83 1015.9
20260901151939 80 156 0.0 3.0 0.00 0.01 0.00 84 1015.8
20260901150746 80 47 0.0 3.0 0.00 0.01 0.00 83 1015.9
20260901145610 79 142 0.0 3.0 0.00 0.01 0.00 84 1015.9
20260901144416 79 127 0.0 3.0 0.00 0.01 0.00 85 1015.9
20260901143222 79 121 0.0 3.0 0.00 0.01 0.00 83 1016.0
20260901142047 78 316 0.0 2.0 0.00 0.01 0.00 84 1016.4
20260901130748 78 244 0.0 4.0 0.00 0.01 0.00 85 1016.3
20260901123247 76 281 0.0 4.0 0.00 0.01 0.00 87 1016.5
20260901114448 73 301 0.0 1.0 0.00 0.01 0.00 91 1016.0
20260901113253 73 300 0.0 2.0 0.00 0.01 0.00 91 1015.9